Showing default

FLOCK 4G 10, 62670

Orbit data source: Space-Track

FLOCK 4G 10, 62670 is a payload satellite owned by Planet (US) in SSO that was launched on Tue, 14 Jan 2025 UTC via an FALCON 9 launch vehicle from the Air Force Western Test Range (AFWTR). Payload-class satellites include a variety of spacecraft equipped with specific instruments for various scientific and technological missions. These include communications satellites like Starlink; space stations such as the ISS; scientific satellites like the Hubble; Earth observation satellites from companies like Planet Labs, Umbra, and HawkEye 360; GPS; miniature CubeSats for education and research; and military/defense satellites.

Loading next visibility...
Identifier
62670, 2025-009BP
Orbit
SSO
Country
Flag of USUS
Related business
Manufacturer
Planet
Mission
Operational Commercial Imaging
Bus & Motor
CUBESAT 3U, Unknown motor
Mass
5.7 kg wet, 5.7 kg dry
Launch date (UTC)
2025-01-14 (1 year ago)
Launch vehicle
FALCON 9
Launch site
Air Force Western Test Range (AFWTR)
Object type
Payload
Rocket body
Debris
Shape & HBR
Box + 2 Pan, 1.0 m
Radar Cross Section
0.072 m², Medium (>0.1 m² and < 1m²)

Expand to show TLE details & history
Last TLE update: 13 hours ago

TLE from 13 hours ago
0 FLOCK 4G 10
1 62670U 25009BP  26034.55981524  .00014499  00000-0  56243-3 0  9991
2 62670  97.4035 116.7450 0005907  90.4581 269.7334 15.26205275116134
Epoch: 2026-02-03T13:26Z
TLE epoch observation values (Epoch: 2026-02-03T13:26:08.036Z)
Latitude
-0.00008°
Longitude
141.47252°
Altitude
490.289 km
Speed
7.62 km/s
True Right ascension
07h 46m 58s
True Declination
0° 00' 00"
Sunlit
Object was in full shadow at epoch
Visualization orbit readout
Latitude
Unknown
Longitude
Unknown
Altitude
Unknown
Speed
Unknown
Apparent Right ascension
Unknown
Apparent Declination
Unknown
Sunlit
N/A
Visualization observer readout
Local Sidereal Time
04:12:17
Azimuth
Unknown
Elevation
Unknown
Doppler factor
Unknown
Orbital elements
Apogee altitude
488.18 km
Perigee altitude
480.073 km
Semi-major axis
6,862.263 km
Eccentricity
0.00059
Inclination
97.4035°
RAAN
116.745°
Arg. of periapsis
90.4581°
True anomaly
269.66571°
Mean anomaly
269.7334°
Eccentric anomaly
269.69956°
Mean motion
3.81805 °/min
Orbital period
94.29 mins
BSTAR
0.00056243
Loading maneuver chart data...
Computing Atmospheric mass density...
Loading historical data...
Loading historical data...
Loading historical data...
Loading historical data...
Loading historical data...
Loading historical data...
Loading historical data...

Documentation

Showing up to 5 results
|